| time (UTC) | temp C | wind direction | speed KPH | gust KPH | rain 1hr cm | rain 24hr cm | rain mn cm | humidity % | barometer mb |
| 20260504081217 | 15 | 180 | 4.8 | 8.0 | 0.00 | 0.15 | 0.00 | 90 | 1013.2 |
| 20260504080217 | 15 | 90 | 1.6 | 3.2 | 0.00 | 0.15 | 0.00 | 92 | 1013.0 |
| 20260504070217 | 14 | 0.0 | 0.0 | 0.00 | 0.15 | 0.00 | 94 | 1012.4 | |
| 20260504060216 | 13 | 0.0 | 0.0 | 0.00 | 0.15 | 0.00 | 94 | 1012.2 | |
| 20260504050216 | 13 | 0.0 | 0.0 | 0.00 | 0.15 | 0.00 | 94 | 1011.6 | |
| 20260504045216 | 13 | 0.0 | 0.0 | 0.00 | 0.15 | 0.00 | 94 | 1011.5 | |
| 20260504044216 | 13 | 0.0 | 0.0 | 0.00 | 0.15 | 0.00 | 93 | 1011.4 | |
| 20260504043216 | 13 | 0.0 | 0.0 | 0.00 | 0.18 | 0.00 | 93 | 1011.3 | |
| 20260504042216 | 13 | 0.0 | 0.0 | 0.00 | 0.18 | 0.00 | 93 | 1011.2 | |
| 20260504041216 | 13 | 0.0 | 0.0 | 0.00 | 0.18 | 0.00 | 93 | 1011.2 | |
| 20260504040216 | 13 | 0.0 | 0.0 | 0.00 | 0.18 | 0.00 | 94 | 1011.3 | |
| 20260504035216 | 12 | 0.0 | 0.0 | 0.00 | 0.18 | 0.00 | 93 | 1011.2 | |
| 20260504034216 | 12 | 0.0 | 0.0 | 0.00 | 0.18 | 0.00 | 93 | 1011.2 | |
| 20260504033216 | 12 | 0.0 | 0.0 | 0.00 | 0.18 | 0.00 | 93 | 1011.3 | |
| 20260504032216 | 12 | 0.0 | 0.0 | 0.00 | 0.18 | 0.00 | 93 | 1011.4 | |
| 20260504031217 | 12 | 0.0 | 0.0 | 0.00 | 0.18 | 0.00 | 93 | 1011.5 | |
| 20260504030216 | 12 | 0.0 | 0.0 | 0.00 | 0.18 | 0.00 | 93 | 1011.5 | |
| 20260504025216 | 12 | 0.0 | 0.0 | 0.00 | 0.18 | 0.00 | 93 | 1011.4 | |
| 20260504024216 | 12 | 0.0 | 0.0 | 0.00 | 0.20 | 0.00 | 93 | 1011.4 | |
| 20260504023216 | 12 | 0.0 | 0.0 | 0.00 | 0.23 | 0.00 | 93 | 1011.3 | |
| 20260504022216 | 12 | 90 | 1.6 | 4.8 | 0.00 | 0.30 | 0.00 | 92 | 1011.2 |
| 20260504021216 | 12 | 0.0 | 0.0 | 0.00 | 0.30 | 0.00 | 92 | 1011.2 | |
| 20260504020216 | 12 | 0.0 | 0.0 | 0.00 | 0.30 | 0.00 | 92 | 1011.2 | |
| 20260504015216 | 12 | 0.0 | 0.0 | 0.00 | 0.30 | 0.00 | 92 | 1011.2 | |
| 20260504014216 | 12 | 0.0 | 0.0 | 0.00 | 0.30 | 0.00 | 92 | 1011.3 | |
| 20260504013216 | 12 | 0.0 | 0.0 | 0.00 | 0.30 | 0.00 | 92 | 1011.3 | |
| 20260504012216 | 13 | 0.0 | 0.0 | 0.00 | 0.33 | 0.00 | 92 | 1011.4 | |
| 20260504011216 | 13 | 0.0 | 0.0 | 0.00 | 0.33 | 0.00 | 92 | 1011.3 | |
| 20260504010216 | 13 | 0.0 | 0.0 | 0.00 | 0.33 | 0.00 | 92 | 1011.3 | |
| 20260504005216 | 13 | 0.0 | 0.0 | 0.00 | 0.33 | 0.00 | 92 | 1011.3 | |
| 20260504004216 | 13 | 0.0 | 0.0 | 0.00 | 0.33 | 0.00 | 92 | 1011.2 | |
| 20260504003216 | 13 | 0.0 | 0.0 | 0.00 | 0.33 | 0.00 | 92 | 1011.3 | |
| 20260504002216 | 13 | 0.0 | 0.0 | 0.00 | 0.33 | 0.00 | 92 | 1011.2 | |
| 20260504001216 | 13 | 0.0 | 0.0 | 0.00 | 0.33 | 0.00 | 92 | 1011.3 | |
| 20260504000216 | 13 | 0.0 | 0.0 | 0.00 | 0.33 | 0.00 | 92 | 1011.2 | |
| 20260503235216 | 14 | 0.0 | 0.0 | 0.00 | 0.33 | 0.00 | 92 | 1011.3 | |
| 20260503234216 | 14 | 0.0 | 0.0 | 0.00 | 0.33 | 0.00 | 92 | 1011.3 | |
| 20260503233216 | 14 | 0.0 | 0.0 | 0.00 | 0.33 | 0.00 | 92 | 1011.4 | |
| 20260503232216 | 14 | 0.0 | 0.0 | 0.00 | 0.33 | 0.00 | 92 | 1011.4 | |
| 20260503231215 | 14 | 0.0 | 0.0 | 0.00 | 0.33 | 0.00 | 92 | 1011.4 | |
| 20260503230216 | 14 | 0.0 | 1.6 | 0.00 | 0.33 | 0.00 | 92 | 1011.4 | |
| 20260503225216 | 14 | 90 | 1.6 | 3.2 | 0.00 | 0.33 | 0.00 | 92 | 1011.4 |
| 20260503224215 | 14 | 0.0 | 1.6 | 0.00 | 0.33 | 0.00 | 92 | 1011.3 | |
| 20260503223216 | 14 | 90 | 1.6 | 8.0 | 0.00 | 0.33 | 0.00 | 92 | 1011.4 |
| 20260503222215 | 14 | 90 | 4.8 | 8.0 | 0.00 | 0.33 | 0.00 | 92 | 1011.5 |
| 20260503221215 | 14 | 0.0 | 1.6 | 0.00 | 0.33 | 0.00 | 91 | 1011.4 | |
| 20260503220216 | 14 | 0.0 | 1.6 | 0.00 | 0.33 | 0.00 | 91 | 1011.3 | |
| 20260503215217 | 14 | 0.0 | 3.2 | 0.00 | 0.33 | 0.33 | 91 | 1011.2 | |
| 20260503214217 | 15 | 0.0 | 0.0 | 0.00 | 0.33 | 0.33 | 91 | 1011.2 | |
| 20260503213217 | 15 | 0.0 | 3.2 | 0.00 | 0.33 | 0.33 | 91 | 1011.1 | |
| 20260503212217 | 15 | 0.0 | 0.0 | 0.00 | 0.36 | 0.33 | 91 | 1011.2 | |
| 20260503211217 | 15 | 0.0 | 0.0 | 0.00 | 0.41 | 0.33 | 90 | 1011.1 | |
| 20260503210217 | 15 | 90 | 3.2 | 8.0 | 0.00 | 0.43 | 0.33 | 90 | 1011.2 |
| 20260503205217 | 15 | 90 | 1.6 | 3.2 | 0.00 | 0.46 | 0.33 | 90 | 1011.1 |
| 20260503204216 | 15 | 68 | 1.6 | 6.4 | 0.00 | 0.53 | 0.33 | 90 | 1011.1 |
| 20260503203217 | 15 | 0.0 | 1.6 | 0.00 | 0.58 | 0.33 | 90 | 1011.2 | |
| 20260503202217 | 15 | 0.0 | 0.0 | 0.00 | 0.58 | 0.33 | 89 | 1011.2 | |
| 20260503201217 | 15 | 90 | 1.6 | 3.2 | 0.00 | 0.58 | 0.33 | 89 | 1011.1 |
| 20260503200217 | 15 | 90 | 3.2 | 4.8 | 0.00 | 0.58 | 0.33 | 89 | 1010.9 |
| 20260503195218 | 15 | 90 | 3.2 | 8.0 | 0.00 | 0.58 | 0.33 | 89 | 1010.8 |
| 20260503194217 | 15 | 0.0 | 1.6 | 0.00 | 0.58 | 0.33 | 89 | 1010.6 | |
| 20260503193216 | 15 | 0.0 | 0.0 | 0.00 | 0.58 | 0.33 | 88 | 1010.6 | |
| 20260503192217 | 16 | 90 | 3.2 | 8.0 | 0.00 | 0.58 | 0.33 | 88 | 1010.5 |
| 20260503191217 | 16 | 90 | 1.6 | 4.8 | 0.00 | 0.58 | 0.33 | 88 | 1010.3 |
| 20260503190216 | 16 | 90 | 3.2 | 4.8 | 0.00 | 0.58 | 0.33 | 88 | 1010.1 |
| 20260503185217 | 16 | 90 | 6.4 | 11.3 | 0.00 | 0.58 | 0.33 | 88 | 1010.2 |
| 20260503184216 | 16 | 113 | 1.6 | 4.8 | 0.00 | 0.58 | 0.33 | 88 | 1010.1 |
| 20260503183216 | 16 | 68 | 4.8 | 12.9 | 0.00 | 0.58 | 0.33 | 88 | 1010.1 |
| 20260503182216 | 16 | 68 | 1.6 | 4.8 | 0.00 | 0.58 | 0.33 | 88 | 1010.0 |
| 20260503181217 | 16 | 90 | 3.2 | 8.0 | 0.00 | 0.58 | 0.33 | 87 | 1009.8 |
| 20260503180216 | 17 | 90 | 1.6 | 3.2 | 0.00 | 0.58 | 0.33 | 87 | 1009.7 |
| 20260503175216 | 17 | 68 | 1.6 | 4.8 | 0.00 | 0.58 | 0.33 | 86 | 1009.6 |
| 20260503174216 | 17 | 0.0 | 3.2 | 0.00 | 0.58 | 0.33 | 86 | 1009.5 | |
| 20260503173216 | 17 | 68 | 3.2 | 4.8 | 0.00 | 0.58 | 0.33 | 86 | 1009.6 |
| 20260503172216 | 17 | 0.0 | 1.6 | 0.00 | 0.58 | 0.33 | 85 | 1009.7 | |
| 20260503171216 | 17 | 0.0 | 3.2 | 0.00 | 0.58 | 0.33 | 85 | 1009.6 | |
| 20260503170216 | 17 | 68 | 3.2 | 8.0 | 0.00 | 0.58 | 0.33 | 85 | 1009.6 |
| 20260503160217 | 18 | 0.0 | 0.0 | 0.03 | 0.58 | 0.33 | 80 | 1009.9 | |
| 20260503150216 | 18 | 45 | 4.8 | 6.4 | 0.00 | 0.56 | 0.33 | 77 | 1009.7 |
| 20260503140216 | 17 | 68 | 1.6 | 3.2 | 0.00 | 0.56 | 0.33 | 88 | 1010.0 |
| 20260503131216 | 16 | 135 | 3.2 | 4.8 | 0.00 | 0.56 | 0.33 | 91 | 1010.3 |
| 20260503130216 | 16 | 203 | 1.6 | 4.8 | 0.00 | 0.56 | 0.33 | 91 | 1010.3 |
| 20260503120216 | 15 | 0.0 | 0.0 | 0.00 | 0.56 | 0.33 | 93 | 1010.5 | |
| 20260503110216 | 16 | 68 | 1.6 | 4.8 | 0.05 | 0.56 | 0.33 | 93 | 1010.6 |
| 20260503100216 | 15 | 0.0 | 3.2 | 0.08 | 0.51 | 0.28 | 93 | 1010.6 | |
| 20260503090217 | 15 | 68 | 1.6 | 3.2 | 0.03 | 0.43 | 0.20 | 92 | 1010.5 |